Вернуться в каталог

VULCAN CENTAUR R/B

АктивенVLEO
NORAD 58752·ROCKET BODY·🇺🇸 United States

Запущен Jan 8, 2024 с Cape Canaveral Space Force Station

Loading…

Ближайшие Пролёты (ближайшие 24 часа)

TLE

УстаревшееSource: Space-Track

Эпоха: Jan 8, 2024, 07:34 UTC

1 58752U 24006B   24008.31572917  .00000148  00000-0  00000-0 0  9991
2 58752  30.0000  29.8668 0004000 321.7000 177.4980 15.23529836    08

Отслеживайте VULCAN CENTAUR R/B в реальном времени с AllMySat

Download on the App Store